Norway House Airport
CYNE : now visible

Airfield :











YOU CAN JOIN US ON...

 
LOGIN :

Register | Disclaimer

   EN    FR    IT 

 









Legend :    VFR   Marginal VFR   IFR   Intensive IFR   Very Intensive IFR
Visi :
Ceiling :
>= 8 km
>= 3000ft
5 to 8 km
1000 to 3000 ft
1500m to 5 km
500 to 1000 ft
800 to 1500m
200 to 500 ft
< 800m
< 200 ft
Symbols :   Thunderstorms  Fog  Heavy snow  Heavy precipitations  Wind > 20 kt






- Airport Elevation : 734 ft
- IATA code : YNE


CYNE - Norway House

CURRENT METAR :
  • 220000Z AUTO 01004KT 9SM BKN091 OVC110 01/M02 A3027 RMK SLP266

EXPIRED METARs :
  • 212300Z AUTO 01004KT 330V060 9SM OVC039 02/M02 A3027 RMK SLP267
  • 212200Z AUTO 36005KT 330V030 9SM OVC100 02/M02 A3027 RMK SLP266

TAF TAF CYNE
Valid from the 21 at 19:00 until the 22 at 07:00 UTC


211838Z 2119/2207 32005KT P6SM OVC025
TEMPO 2119/2204 P6SM -SN OVC020
BECMG 2119/2121 01008KT
FM220400 03005KT P6SM OVC010
TEMPO 2204/2207 2SM -SN OVC008 RMK FCST BASED ON AUTO OBS. NXT FCST BY 220100Z
CZWG FIR / North America



MET'MAP, your aeronautical weather chart ! - Copyright ORBIFLY December 2007 - Disclaimer

ORBIFLY MET'MAP TEAM :

Programming & Development : Alexandra Zaïnal
Concept & original design : Baudouin d'Aumeries
Assistance for programming : Marc-Olivier Méhu
Technical & hardware support : Manuel Goepfert

Contact : metmap@orbifly.com




SOURCES & CREDITS :

   NOAA       Earth
Advisory